Home   Weather   Pelotas   Past weeks
Flag for Brazil

Past Weather in Pelotas, Rio Grande do Sul, Brazil — Yesterday and Last 2 Weeks

Now
63 °F

Clear.


Feels Like: 63 °F
Forecast: 84 / 55 °F
Wind: 2 mph from East

Location: Porto Alegre Aero-Porto

Current Time: Dec 6, 2019 at 2:38:02 am

Latest Report: Dec 6, 2019 at 2:00 am


Visibility: 10 mi

Pressure: 29.83 "Hg

Humidity: 83%

Dew Point: 57 °F

Location of PelotasLocation

Past Weather in Pelotas — Graph

°F

Pelotas Temperature Yesterday

Maximum temperature yesterday: 81 °F (at 2:00 pm)
Minimum temperature yesterday: 66 °F (at 10:00 pm)
Average temperature yesterday: 73 °F

High & Low Weather Summary for the Past Weeks

 TemperatureHumidityPressure
High93 °F (Nov 21, 3:00 pm)100% (Nov 21, 3:00 am)30.12 "Hg (Nov 21, 3:00 am)
Low55 °F (Nov 28, 5:00 am)15% (Dec 3, 1:00 pm)29.65 "Hg (Dec 4, 4:00 pm)
Average73 °F66%29.88 "Hg
* Reported Nov 21 1:00 am — Dec 6 1:00 am, Pelotas. Weather by CustomWeather, © 2019

Note: Actual official high and low records may vary slightly from our data, if they occured in-between our weather recording intervals... More about our weather records

Pelotas Weather History for the Previous 24 Hours

Scroll right to see more
 ConditionsComfort  
Time TempWeatherWind HumidityBarometerVisibility
1:00 am
Fri, Dec 6
64 °FClear.5 mph78%29.86 "Hg10 mi
12:00 am66 °FClear.6 mph73%29.86 "Hg10 mi
11:00 pm
Thu, Dec 5
66 °FClear.8 mph73%29.86 "Hg10 mi
10:00 pm66 °FClear.9 mph73%29.86 "Hg10 mi
9:00 pm70 °FClear.9 mph64%29.83 "Hg10 mi
8:00 pm72 °FPassing clouds.8 mph57%29.80 "HgN/A
7:00 pm73 °FPassing clouds.10 mph53%29.80 "HgN/A
6:00 pm75 °FPassing clouds.10 mph54%29.74 "HgN/A
5:00 pm77 °FPassing clouds.13 mph51%29.74 "HgN/A
4:00 pm77 °FScattered clouds.14 mph54%29.74 "HgN/A
3:00 pm81 °FScattered clouds.5 mph51%29.74 "HgN/A
2:00 pm81 °FScattered clouds.7 mph51%29.77 "HgN/A
1:00 pm77 °FScattered clouds.8 mph57%29.77 "HgN/A
12:00 pm77 °FScattered clouds.8 mph61%29.80 "HgN/A
11:00 am77 °FPassing clouds.10 mph61%29.80 "HgN/A
10:00 am75 °FScattered clouds.8 mph69%29.80 "HgN/A
9:00 am73 °FScattered clouds.9 mph78%29.80 "HgN/A
8:00 am72 °FPartly sunny.10 mph78%29.80 "HgN/A
7:00 am70 °FBroken clouds.10 mph78%29.80 "HgN/A
6:00 am68 °FPartly sunny.8 mph83%29.77 "HgN/A
5:00 am68 °FPassing clouds.7 mph88%29.74 "HgN/A
4:00 am70 °FOvercast.6 mph83%29.74 "HgN/A
3:00 am70 °FOvercast.3 mph83%29.71 "HgN/A
2:00 am72 °FMostly cloudy.8 mph83%29.74 "HgN/A
Weather by CustomWeather, © 2019

See weather overview

Advertising